QPF
0.03 0.02 0.02 0.02 0.01 0.01 0.02 0.02 0.01 0.00 0.00 0.00 0.00 0.00 0.00 0.00 0.00 0.00 0.00 0.00 0.00 0.00 0.00 0.00 0.00 0.00 0.00 0.00 0.00 0.00 0.00 0.00 0.00 0.00 0.00 0.00 0.00 0.00 0.00 0.00 0.00 0.00 0.00 0.00
0.01 0.01 0.02 0.02 0.01 0.01 0.01 0.01 0.00 0.00 0.00 0.00 0.00 0.00 0.00 0.00 0.00 0.00 0.00 0.00 0.00 0.00 0.00 0.00 0.00 0.00 0.00 0.00 0.00 0.00 0.00 0.00 0.00 0.00 0.00 0.00 0.00 0.00 0.00 0.00 0.00 0.00 0.00 0.00
0.02 0.01 0.02 0.02 0.01 0.00 0.00 0.00 0.00 0.00 0.00 0.00 0.00 0.00 0.00 0.00 0.00 0.00 0.00 0.00 0.00 0.00 0.00 0.00 0.00 0.00 0.00 0.00 0.00 0.00 0.00 0.00 0.00 0.00 0.00 0.00 0.00 0.00 0.00 0.00 0.00 0.00 0.00 0.00
0.04 0.03 0.04 0.02 0.00 0.00 0.00 0.00 0.00 0.00 0.00 0.00 0.00 0.00 0.00 0.00 0.00 0.00 0.00 0.00 0.00 0.00 0.00 0.00 0.00 0.00 0.00 0.00 0.00 0.00 0.00 0.00 0.00 0.00 0.00 0.00 0.00 0.00 0.00 0.00 0.00 0.00 0.00 0.00
0.05 0.04 0.03 0.01 0.00 0.00 0.01 0.00 0.00 0.00 0.00 0.00 0.00 0.00 0.00 0.00 0.00 0.00 0.00 0.00 0.00 0.00 0.00 0.00 0.00 0.00 0.00 0.00 0.00 0.00 0.00 0.00 0.00 0.00 0.00 0.00 0.00 0.00 0.00 0.00 0.00 0.00 0.00 0.00
0.05 0.04 0.02 0.00 0.00 0.00 0.00 0.01 0.00 0.00 0.00 0.00 0.00 0.00 0.00 0.00 0.00 0.00 0.00 0.00 0.00 0.00 0.00 0.00 0.00 0.00 0.00 0.00 0.00 0.00 0.00 0.00 0.00 0.00 0.00 0.00 0.00 0.00 0.00 0.00 0.00 0.00 0.00 0.00
0.05 0.03 0.01 0.00 0.00 0.00 0.00 0.01 0.01 0.00 0.00 0.00 0.00 0.00 0.00 0.00 0.00 0.00 0.00 0.00 0.00 0.00 0.00 0.00 0.00 0.00 0.00 0.00 0.00 0.00 0.00 0.00 0.00 0.00 0.00 0.00 0.00 0.00 0.00 0.00 0.00 0.00 0.00 0.00
0.03 0.03 0.01 0.00 0.00 0.00 0.00 0.00 0.01 0.00 0.00 0.00 0.00 0.00 0.00 0.00 0.00 0.00 0.00 0.00 0.00 0.00 0.00 0.00 0.00 0.00 0.00 0.00 0.00 0.00 0.00 0.00 0.00 0.00 0.00 0.00 0.00 0.00 0.00 0.00 0.00 0.00 0.00 0.00
0.02 0.01 0.00 0.00 0.00 0.00 0.00 0.00 0.00 0.00 0.00 0.00 0.00 0.00 0.00 0.00 0.00 0.00 0.00 0.00 0.00 0.00 0.00 0.00 0.00 0.00 0.00 0.00 0.00 0.00 0.00 0.00 0.00 0.00 0.00 0.00 0.00 0.00 0.00 0.00 0.00 0.00 0.00 0.00
0.02 0.01 0.01 0.00 0.00 0.00 0.00 0.00 0.00 0.00 0.00 0.00 0.00 0.00 0.00 0.00 0.00 0.00 0.00 0.00 0.00 0.00 0.00 0.00 0.00 0.00 0.00 0.00 0.00 0.00 0.00 0.00 0.00 0.00 0.00 0.00 0.00 0.00 0.00 0.00 0.00 0.00 0.00 0.00
0.01 0.01 0.01 0.00 0.00 0.00 0.00 0.00 0.00 0.00 0.00 0.00 0.00 0.00 0.00 0.00 0.00 0.00 0.00 0.00 0.00 0.00 0.00 0.00 0.00 0.00 0.00 0.00 0.00 0.00 0.00 0.00 0.00 0.00 0.00 0.00 0.00 0.00 0.00 0.00 0.00 0.00 0.00 0.00
0.01 0.00 0.00 0.00 0.00 0.00 0.00 0.00 0.00 0.00 0.00 0.00 0.00 0.00 0.00 0.00 0.00 0.00 0.00 0.00 0.00 0.00 0.00 0.00 0.00 0.00 0.00 0.00 0.00 0.00 0.00 0.00 0.00 0.00 0.00 0.00 0.00 0.00 0.00 0.00 0.00 0.00 0.00 0.00
0.00 0.00 0.00 0.00 0.00 0.00 0.00 0.00 0.00 0.00 0.00 0.00 0.00 0.00 0.00 0.00 0.00 0.00 0.00 0.00 0.00 0.00 0.00 0.00 0.00 0.00 0.00 0.00 0.00 0.00 0.00 0.00 0.00 0.00 0.00 0.00 0.00 0.00 0.00 0.00 0.00 0.00 0.00 0.00
0.00 0.00 0.00 0.00 0.00 0.00 0.00 0.00 0.00 0.00 0.00 0.00 0.00 0.00 0.00 0.00 0.00 0.00 0.00 0.00 0.00 0.00 0.00 0.00 0.00 0.00 0.00 0.00 0.00 0.00 0.00 0.00 0.00 0.00 0.00 0.00 0.00 0.00 0.00 0.00 0.00 0.00 0.00 0.00
0.00 0.00 0.00 0.00 0.00 0.00 0.00 0.00 0.00 0.00 0.00 0.00 0.00 0.00 0.00 0.00 0.00 0.00 0.00 0.00 0.00 0.00 0.00 0.00 0.00 0.00 0.00 0.00 0.00 0.00 0.00 0.00 0.00 0.00 0.00 0.00 0.00 0.00 0.00 0.00 0.00 0.00 0.00 0.00
0.01 0.00 0.00 0.00 0.00 0.00 0.00 0.00 0.00 0.00 0.00 0.00 0.00 0.00 0.00 0.00 0.00 0.00 0.00 0.00 0.00 0.00 0.00 0.00 0.00 0.00 0.00 0.00 0.00 0.00 0.00 0.00 0.00 0.00 0.00 0.00 0.00 0.00 0.00 0.00 0.00 0.00 0.00 0.00
0.01 0.01 0.01 0.01 0.00 0.00 0.00 0.00 0.00 0.00 0.00 0.00 0.00 0.00 0.00 0.00 0.00 0.00 0.00 0.00 0.00 0.00 0.00 0.00 0.00 0.00 0.00 0.00 0.00 0.00 0.00 0.00 0.00 0.00 0.00 0.00 0.00 0.00 0.00 0.00 0.00 0.00 0.00 0.00
0.01 0.01 0.01 0.01 0.01 0.01 0.01 0.00 0.00 0.00 0.00 0.00 0.00 0.00 0.00 0.00 0.00 0.00 0.00 0.00 0.00 0.00 0.00 0.00 0.00 0.00 0.00 0.00 0.00 0.00 0.00 0.00 0.00 0.00 0.00 0.00 0.00 0.00 0.00 0.00 0.00 0.00 0.00 0.00
0.02 0.02 0.01 0.01 0.01 0.01 0.01 0.00 0.00 0.00 0.00 0.00 0.00 0.00 0.00 0.00 0.00 0.00 0.00 0.00 0.00 0.00 0.00 0.00 0.00 0.00 0.00 0.00 0.00 0.00 0.00 0.00 0.00 0.00 0.00 0.00 0.00 0.00 0.00 0.00 0.00 0.00 0.00 0.00
0.02 0.01 0.01 0.01 0.01 0.01 0.01 0.00 0.00 0.00 0.00 0.00 0.00 0.00 0.00 0.00 0.00 0.00 0.00 0.00 0.00 0.00 0.00 0.00 0.00 0.00 0.00 0.00 0.00 0.00 0.00 0.00 0.01 0.01 0.00 0.00 0.00 0.00 0.00 0.00 0.00 0.00 0.00 0.00
0.01 0.01 0.01 0.01 0.01 0.01 0.01 0.01 0.00 0.00 0.00 0.00 0.00 0.00 0.01 0.01 0.01 0.01 0.01 0.01 0.01 0.01 0.01 0.01 0.01 0.01 0.01 0.01 0.01 0.01 0.00 0.00 0.00 0.00 0.00 0.00 0.00 0.00 0.00 0.00 0.00 0.00 0.00 0.00
0.01 0.01 0.01 0.01 0.01 0.01 0.01 0.01 0.01 0.01 0.01 0.01 0.01 0.01 0.01 0.01 0.01 0.02 0.02 0.02 0.02 0.02 0.02 0.02 0.01 0.01 0.01 0.01 0.01 0.01 0.01 0.00 0.00 0.00 0.00 0.00 0.00 0.00 0.00 0.00 0.00 0.00 0.00 0.00
0.01 0.01 0.01 0.01 0.01 0.01 0.01 0.01 0.01 0.01 0.01 0.01 0.02 0.02 0.02 0.02 0.02 0.02 0.03 0.03 0.03 0.02 0.02 0.02 0.02 0.01 0.01 0.01 0.01 0.00 0.00 0.00 0.00 0.00 0.00 0.00 0.00 0.00 0.00 0.00 0.00 0.00 0.00 0.00
0.01 0.01 0.01 0.01 0.01 0.01 0.01 0.01 0.01 0.01 0.01 0.01 0.01 0.01 0.02 0.02 0.02 0.02 0.02 0.02 0.02 0.02 0.01 0.01 0.01 0.01 0.01 0.01 0.00 0.00 0.00 0.00 0.00 0.00 0.00 0.00 0.00 0.00 0.00 0.00 0.00 0.00 0.00 0.00
0.01 0.01 0.01 0.01 0.01 0.01 0.01 0.01 0.02 0.02 0.01 0.01 0.02 0.02 0.02 0.02 0.02 0.02 0.02 0.02 0.01 0.01 0.01 0.01 0.01 0.01 0.00 0.00 0.00 0.00 0.00 0.00 0.00 0.00 0.00 0.00 0.00 0.00 0.00 0.00 0.00 0.00 0.00 0.00
0.02 0.02 0.02 0.01 0.01 0.01 0.01 0.01 0.02 0.03 0.02 0.02 0.02 0.02 0.02 0.02 0.02 0.02 0.02 0.02 0.01 0.01 0.01 0.01 0.00 0.00 0.00 0.00 0.00 0.00 0.00 0.00 0.00 0.00 0.00 0.00 0.00 0.00 0.00 0.00 0.00 0.00 0.00 0.00
0.03 0.02 0.02 0.02 0.02 0.02 0.02 0.02 0.02 0.03 0.02 0.02 0.02 0.02 0.02 0.02 0.02 0.01 0.01 0.01 0.01 0.01 0.01 0.01 0.00 0.00 0.00 0.00 0.00 0.00 0.00 0.00 0.00 0.00 0.00 0.00 0.00 0.01 0.00 0.00 0.01 0.00 0.01 0.01
MSLP
1016.07 1016.63 1017.11 1017.46 1017.64 1017.63 1017.42 1017.01 1016.43 1015.74 1014.97 1014.20 1013.48 1012.85 1012.34 1011.96 1011.69 1011.50 1011.36 1011.23 1011.10 1010.94 1010.76 1010.58 1010.41 1010.29 1010.22 1010.22 1010.29 1010.40 1010.53 1010.67 1010.78 1010.86 1010.90 1010.91 1010.91 1010.92 1010.95 1011.01 1011.11 1011.24 1011.39 1011.54
1015.81 1016.21 1016.49 1016.61 1016.58 1016.37 1016.02 1015.53 1014.95 1014.32 1013.68 1013.06 1012.52 1012.06 1011.69 1011.41 1011.20 1011.03 1010.89 1010.75 1010.60 1010.44 1010.28 1010.13 1010.02 1009.96 1009.95 1010.01 1010.10 1010.22 1010.35 1010.46 1010.53 1010.57 1010.57 1010.54 1010.51 1010.48 1010.47 1010.49 1010.54 1010.61 1010.70 1010.79
1015.50 1015.72 1015.78 1015.69 1015.45 1015.07 1014.60 1014.06 1013.50 1012.94 1012.42 1011.96 1011.58 1011.27 1011.02 1010.83 1010.67 1010.53 1010.39 1010.24 1010.09 1009.94 1009.80 1009.70 1009.64 1009.63 1009.67 1009.76 1009.87 1009.99 1010.10 1010.18 1010.21 1010.21 1010.17 1010.11 1010.04 1009.99 1009.95 1009.94 1009.95 1009.98 1010.02 1010.06
1015.09 1015.12 1014.99 1014.70 1014.29 1013.78 1013.23 1012.66 1012.13 1011.65 1011.24 1010.92 1010.67 1010.48 1010.34 1010.22 1010.10 1009.98 1009.85 1009.70 1009.55 1009.42 1009.32 1009.25 1009.24 1009.28 1009.36 1009.47 1009.59 1009.70 1009.79 1009.83 1009.84 1009.80 1009.74 1009.66 1009.58 1009.51 1009.46 1009.43 1009.42 1009.42 1009.43 1009.44
1014.51 1014.38 1014.08 1013.65 1013.11 1012.52 1011.93 1011.37 1010.88 1010.48 1010.17 1009.95 1009.80 1009.70 1009.63 1009.56 1009.47 1009.36 1009.24 1009.11 1008.98 1008.88 1008.82 1008.80 1008.84 1008.92 1009.04 1009.17 1009.30 1009.40 1009.47 1009.50 1009.48 1009.43 1009.35 1009.27 1009.20 1009.13 1009.09 1009.06 1009.03 1009.02 1009.00 1008.99
1013.70 1013.44 1013.03 1012.50 1011.91 1011.30 1010.71 1010.18 1009.75 1009.42 1009.19 1009.05 1008.97 1008.92 1008.89 1008.84 1008.78 1008.69 1008.58 1008.48 1008.39 1008.34 1008.33 1008.38 1008.47 1008.61 1008.76 1008.91 1009.05 1009.15 1009.21 1009.23 1009.21 1009.16 1009.09 1009.03 1008.97 1008.93 1008.89 1008.87 1008.84 1008.81 1008.77 1008.73
1012.61 1012.27 1011.80 1011.26 1010.67 1010.08 1009.54 1009.08 1008.72 1008.46 1008.29 1008.20 1008.16 1008.14 1008.13 1008.10 1008.06 1007.99 1007.93 1007.87 1007.84 1007.86 1007.92 1008.04 1008.20 1008.38 1008.58 1008.76 1008.92 1009.03 1009.09 1009.11 1009.10 1009.07 1009.02 1008.98 1008.95 1008.93 1008.91 1008.89 1008.86 1008.81 1008.74 1008.66
1011.21 1010.84 1010.39 1009.88 1009.35 1008.85 1008.40 1008.03 1007.75 1007.56 1007.45 1007.40 1007.39 1007.40 1007.40 1007.39 1007.38 1007.35 1007.34 1007.35 1007.41 1007.50 1007.66 1007.85 1008.08 1008.33 1008.57 1008.78 1008.95 1009.08 1009.16 1009.19 1009.20 1009.18 1009.16 1009.15 1009.14 1009.13 1009.12 1009.09 1009.05 1008.97 1008.86 1008.74
1009.52 1009.17 1008.78 1008.36 1007.94 1007.56 1007.23 1006.98 1006.80 1006.69 1006.65 1006.65 1006.67 1006.71 1006.74 1006.78 1006.81 1006.85 1006.92 1007.02 1007.16 1007.36 1007.61 1007.88 1008.18 1008.48 1008.76 1009.00 1009.19 1009.33 1009.42 1009.46 1009.48 1009.49 1009.48 1009.49 1009.49 1009.48 1009.46 1009.42 1009.34 1009.23 1009.08 1008.90
1007.58 1007.30 1007.00 1006.70 1006.43 1006.20 1006.02 1005.91 1005.85 1005.84 1005.88 1005.94 1006.02 1006.12 1006.21 1006.31 1006.42 1006.55 1006.72 1006.92 1007.18 1007.47 1007.80 1008.15 1008.50 1008.84 1009.14 1009.40 1009.60 1009.74 1009.83 1009.88 1009.91 1009.92 1009.93 1009.93 1009.93 1009.91 1009.87 1009.79 1009.68 1009.52 1009.32 1009.09
1005.50 1005.30 1005.11 1004.96 1004.84 1004.78 1004.77 1004.80 1004.88 1005.00 1005.14 1005.30 1005.48 1005.66 1005.85 1006.04 1006.26 1006.51 1006.78 1007.10 1007.45 1007.83 1008.23 1008.64 1009.02 1009.38 1009.68 1009.93 1010.12 1010.25 1010.33 1010.38 1010.40 1010.41 1010.41 1010.40 1010.38 1010.33 1010.26 1010.14 1009.98 1009.78 1009.54 1009.27
1003.43 1003.30 1003.23 1003.21 1003.25 1003.35 1003.50 1003.70 1003.93 1004.19 1004.47 1004.76 1005.06 1005.37 1005.68 1006.01 1006.35 1006.72 1007.11 1007.53 1007.96 1008.41 1008.85 1009.27 1009.65 1009.99 1010.27 1010.49 1010.66 1010.76 1010.83 1010.86 1010.87 1010.87 1010.86 1010.83 1010.78 1010.70 1010.58 1010.43 1010.22 1009.98 1009.70 1009.40
1001.52 1001.47 1001.49 1001.60 1001.78 1002.02 1002.33 1002.68 1003.07 1003.48 1003.91 1004.35 1004.80 1005.25 1005.71 1006.18 1006.66 1007.14 1007.63 1008.13 1008.62 1009.09 1009.54 1009.94 1010.29 1010.59 1010.82 1011.00 1011.12 1011.20 1011.24 1011.26 1011.26 1011.24 1011.21 1011.16 1011.08 1010.97 1010.82 1010.63 1010.39 1010.12 1009.82 1009.51
999.97 999.97 1000.07 1000.27 1000.56 1000.92 1001.36 1001.85 1002.38 1002.94 1003.52 1004.12 1004.72 1005.33 1005.93 1006.53 1007.13 1007.71 1008.28 1008.82 1009.33 1009.79 1010.21 1010.56 1010.85 1011.08 1011.26 1011.38 1011.46 1011.50 1011.52 1011.53 1011.52 1011.50 1011.46 1011.40 1011.30 1011.16 1010.98 1010.76 1010.50 1010.21 1009.90 1009.58
998.94 998.98 999.13 999.39 999.75 1000.20 1000.73 1001.33 1001.98 1002.67 1003.38 1004.12 1004.85 1005.59 1006.32 1007.03 1007.71 1008.36 1008.97 1009.52 1010.00 1010.42 1010.78 1011.06 1011.27 1011.42 1011.53 1011.59 1011.63 1011.66 1011.67 1011.67 1011.67 1011.65 1011.61 1011.54 1011.44 1011.29 1011.09 1010.85 1010.57 1010.26 1009.95 1009.64
998.54 998.61 998.79 999.08 999.48 999.98 1000.57 1001.23 1001.96 1002.74 1003.55 1004.38 1005.22 1006.05 1006.86 1007.64 1008.36 1009.03 1009.63 1010.15 1010.58 1010.93 1011.20 1011.39 1011.52 1011.60 1011.65 1011.67 1011.68 1011.69 1011.70 1011.71 1011.72 1011.72 1011.69 1011.63 1011.52 1011.36 1011.15 1010.89 1010.60 1010.28 1009.96 1009.65
998.82 998.91 999.11 999.41 999.82 1000.33 1000.94 1001.63 1002.39 1003.21 1004.06 1004.94 1005.82 1006.69 1007.53 1008.31 1009.03 1009.68 1010.23 1010.69 1011.04 1011.30 1011.48 1011.59 1011.64 1011.66 1011.65 1011.64 1011.63 1011.64 1011.66 1011.69 1011.72 1011.73 1011.71 1011.65 1011.54 1011.37 1011.14 1010.87 1010.56 1010.23 1009.90 1009.59
999.75 999.86 1000.06 1000.36 1000.75 1001.25 1001.84 1002.51 1003.26 1004.06 1004.91 1005.77 1006.64 1007.49 1008.29 1009.04 1009.70 1010.28 1010.76 1011.13 1011.39 1011.57 1011.66 1011.69 1011.67 1011.64 1011.59 1011.56 1011.55 1011.56 1011.59 1011.63 1011.67 1011.69 1011.68 1011.61 1011.49 1011.30 1011.05 1010.76 1010.43 1010.08 1009.74 1009.41
1001.21 1001.34 1001.55 1001.83 1002.19 1002.65 1003.19 1003.82 1004.51 1005.25 1006.03 1006.83 1007.63 1008.40 1009.12 1009.78 1010.35 1010.83 1011.21 1011.49 1011.66 1011.75 1011.77 1011.74 1011.67 1011.60 1011.53 1011.49 1011.47 1011.47 1011.51 1011.55 1011.58 1011.59 1011.56 1011.47 1011.32 1011.10 1010.83 1010.50 1010.15 1009.78 1009.42 1009.07
1002.97 1003.14 1003.35 1003.62 1003.96 1004.36 1004.85 1005.39 1006.00 1006.65 1007.33 1008.02 1008.71 1009.36 1009.97 1010.50 1010.96 1011.33 1011.61 1011.79 1011.88 1011.90 1011.86 1011.78 1011.68 1011.58 1011.49 1011.43 1011.39 1011.39 1011.40 1011.41 1011.42 1011.39 1011.32 1011.19 1011.00 1010.74 1010.43 1010.08 1009.70 1009.31 1008.93 1008.57
1004.82 1005.02 1005.25 1005.51 1005.82 1006.18 1006.60 1007.07 1007.58 1008.12 1008.68 1009.24 1009.79 1010.30 1010.77 1011.18 1011.51 1011.77 1011.94 1012.04 1012.06 1012.02 1011.93 1011.82 1011.69 1011.57 1011.46 1011.37 1011.31 1011.26 1011.23 1011.20 1011.15 1011.06 1010.93 1010.75 1010.51 1010.21 1009.86 1009.48 1009.08 1008.67 1008.28 1007.92
1006.53 1006.77 1007.02 1007.29 1007.58 1007.91 1008.27 1008.66 1009.08 1009.51 1009.94 1010.37 1010.78 1011.15 1011.48 1011.75 1011.97 1012.12 1012.20 1012.22 1012.18 1012.10 1011.98 1011.83 1011.68 1011.53 1011.39 1011.27 1011.16 1011.06 1010.97 1010.87 1010.75 1010.59 1010.39 1010.15 1009.85 1009.51 1009.13 1008.73 1008.32 1007.92 1007.53 1007.18
1007.96 1008.24 1008.52 1008.80 1009.09 1009.40 1009.72 1010.05 1010.38 1010.71 1011.03 1011.33 1011.61 1011.85 1012.05 1012.20 1012.31 1012.36 1012.37 1012.32 1012.23 1012.11 1011.96 1011.79 1011.61 1011.43 1011.25 1011.08 1010.91 1010.75 1010.59 1010.41 1010.21 1009.98 1009.72 1009.42 1009.08 1008.70 1008.31 1007.91 1007.50 1007.11 1006.74 1006.41
1009.04 1009.35 1009.66 1009.96 1010.27 1010.57 1010.86 1011.15 1011.42 1011.66 1011.89 1012.08 1012.24 1012.37 1012.45 1012.50 1012.51 1012.48 1012.41 1012.31 1012.18 1012.02 1011.83 1011.64 1011.42 1011.21 1010.99 1010.76 1010.54 1010.31 1010.07 1009.82 1009.55 1009.26 1008.95 1008.60 1008.24 1007.86 1007.46 1007.07 1006.68 1006.31 1005.97 1005.66
1009.78 1010.13 1010.46 1010.80 1011.12 1011.42 1011.70 1011.96 1012.18 1012.36 1012.50 1012.61 1012.67 1012.70 1012.69 1012.64 1012.57 1012.47 1012.34 1012.18 1012.01 1011.81 1011.59 1011.36 1011.11 1010.85 1010.59 1010.32 1010.03 1009.75 1009.45 1009.14 1008.82 1008.49 1008.14 1007.78 1007.41 1007.03 1006.65 1006.27 1005.91 1005.57 1005.25 1004.97
1010.29 1010.65 1011.02 1011.37 1011.71 1012.02 1012.29 1012.52 1012.70 1012.83 1012.91 1012.94 1012.92 1012.86 1012.77 1012.65 1012.50 1012.33 1012.14 1011.93 1011.71 1011.47 1011.22 1010.95 1010.67 1010.38 1010.07 1009.75 1009.43 1009.10 1008.77 1008.42 1008.07 1007.72 1007.36 1007.00 1006.63 1006.26 1005.90 1005.54 1005.20 1004.88 1004.58 1004.30
1010.67 1011.06 1011.44 1011.80 1012.15 1012.45 1012.71 1012.91 1013.05 1013.13 1013.15 1013.11 1013.02 1012.89 1012.73 1012.53 1012.32 1012.09 1011.84 1011.59 1011.32 1011.04 1010.75 1010.45 1010.13 1009.81 1009.47 1009.13 1008.78 1008.42 1008.06 1007.71 1007.35 1006.99 1006.63 1006.27 1005.92 1005.56 1005.21 1004.86 1004.53 1004.20 1003.89 1003.60
Thickness
5571 5578 5579 5583 5587 5584 5587 5595 5596 5612 5619 5641 5645 5645 5647 5648 5648 5648 5649 5649 5648 5646 5643 5640 5636 5633 5630 5627 5624 5620 5615 5610 5605 5600 5594 5588 5581 5575 5569 5563 5557 5551 5544 5538
5559 5567 5570 5575 5584 5587 5591 5597 5600 5607 5620 5642 5642 5638 5638 5640 5640 5641 5644 5645 5644 5642 5638 5635 5631 5627 5623 5620 5616 5612 5607 5602 5597 5591 5585 5579 5573 5567 5560 5554 5548 5541 5535 5529
5546 5555 5557 5567 5588 5590 5593 5599 5603 5611 5633 5637 5633 5633 5636 5638 5637 5638 5641 5642 5640 5638 5635 5632 5627 5622 5617 5613 5608 5603 5598 5593 5587 5582 5576 5571 5565 5558 5551 5545 5538 5531 5525 5519
5533 5540 5541 5588 5598 5600 5600 5607 5609 5615 5627 5630 5633 5635 5635 5636 5635 5636 5637 5637 5636 5633 5629 5625 5620 5615 5610 5604 5599 5594 5589 5583 5578 5573 5567 5561 5555 5548 5542 5535 5528 5521 5515 5509
5522 5530 5548 5576 5590 5594 5593 5604 5614 5615 5622 5625 5625 5624 5629 5634 5633 5636 5635 5634 5631 5627 5622 5617 5611 5606 5601 5595 5590 5585 5580 5575 5570 5564 5558 5551 5544 5538 5531 5525 5518 5511 5505 5498
5517 5527 5544 5584 5596 5596 5593 5598 5618 5614 5618 5618 5611 5608 5630 5636 5632 5630 5628 5625 5621 5616 5612 5607 5602 5597 5591 5586 5580 5577 5572 5567 5561 5554 5548 5541 5535 5528 5521 5514 5507 5500 5494 5487
5519 5526 5551 5582 5587 5587 5581 5603 5617 5614 5615 5612 5608 5621 5629 5628 5625 5623 5620 5615 5611 5607 5603 5599 5593 5588 5582 5577 5573 5569 5563 5556 5550 5544 5537 5530 5523 5516 5509 5502 5495 5488 5482 5475
5519 5524 5552 5582 5576 5584 5598 5608 5610 5609 5609 5608 5612 5617 5616 5616 5614 5611 5608 5605 5601 5597 5593 5588 5583 5579 5573 5568 5564 5558 5552 5545 5539 5532 5526 5519 5511 5503 5497 5489 5482 5475 5468 5462
5539 5556 5577 5577 5583 5592 5595 5597 5602 5603 5605 5604 5605 5606 5607 5606 5603 5600 5597 5594 5591 5588 5583 5577 5573 5570 5565 5560 5553 5547 5540 5533 5526 5520 5512 5506 5499 5491 5483 5476 5470 5463 5456 5450
5534 5553 5566 5570 5575 5582 5586 5590 5595 5597 5599 5597 5598 5599 5597 5595 5592 5590 5587 5584 5581 5577 5572 5567 5562 5559 5555 5548 5542 5535 5528 5520 5514 5507 5499 5492 5486 5479 5472 5464 5457 5451 5444 5438
5531 5549 5555 5564 5570 5577 5580 5581 5583 5587 5588 5589 5589 5590 5588 5586 5584 5581 5578 5574 5571 5569 5565 5559 5552 5547 5542 5536 5530 5523 5515 5508 5501 5494 5487 5479 5473 5466 5460 5454 5447 5440 5433 5425
5539 5551 5551 5563 5571 5572 5572 5574 5577 5579 5581 5581 5581 5582 5581 5579 5576 5572 5568 5564 5560 5557 5553 5547 5541 5535 5530 5524 5519 5512 5504 5496 5489 5482 5474 5467 5460 5453 5448 5442 5437 5430 5423 5415
5543 5547 5549 5559 5563 5566 5568 5571 5572 5572 5575 5575 5573 5573 5572 5569 5565 5561 5557 5554 5551 5547 5542 5536 5529 5523 5518 5513 5507 5500 5493 5485 5477 5470 5463 5455 5448 5442 5435 5429 5423 5417 5410 5403
5535 5538 5542 5550 5554 5558 5560 5563 5564 5564 5565 5566 5564 5562 5560 5557 5553 5550 5547 5544 5540 5534 5529 5523 5517 5511 5505 5500 5494 5487 5479 5473 5465 5457 5449 5442 5435 5428 5422 5415 5408 5401 5395 5389
5529 5531 5537 5543 5545 5548 5550 5551 5552 5553 5553 5553 5551 5549 5548 5545 5542 5539 5535 5530 5525 5520 5514 5509 5504 5498 5492 5487 5481 5473 5466 5458 5451 5444 5436 5429 5422 5415 5408 5401 5394 5387 5381 5375
5524 5523 5526 5531 5536 5539 5539 5540 5543 5545 5543 5541 5539 5537 5536 5533 5529 5524 5519 5516 5512 5507 5502 5497 5491 5485 5479 5474 5467 5459 5452 5447 5440 5432 5423 5416 5409 5401 5394 5386 5379 5373 5367 5361
5514 5518 5519 5521 5527 5530 5530 5532 5534 5536 5533 5530 5529 5525 5521 5517 5512 5508 5504 5501 5498 5494 5489 5484 5478 5472 5466 5460 5454 5446 5439 5432 5427 5418 5410 5402 5395 5387 5380 5373 5366 5360 5353 5347
5511 5517 5518 5519 5521 5522 5522 5522 5522 5522 5520 5519 5516 5511 5508 5506 5502 5496 5491 5486 5481 5476 5472 5469 5464 5458 5452 5446 5440 5433 5425 5418 5411 5403 5396 5389 5382 5375 5367 5360 5353 5346 5341 5334
5498 5502 5506 5509 5511 5512 5512 5510 5509 5507 5506 5504 5501 5498 5496 5492 5488 5482 5477 5472 5468 5463 5457 5454 5451 5444 5438 5432 5427 5419 5411 5404 5397 5390 5383 5377 5370 5361 5354 5347 5341 5334 5327 5321
5486 5489 5492 5494 5496 5496 5497 5495 5493 5491 5490 5489 5486 5482 5477 5473 5470 5466 5462 5458 5454 5451 5445 5441 5436 5429 5423 5418 5413 5405 5398 5391 5383 5376 5369 5362 5355 5348 5341 5335 5328 5321 5315 5309
5470 5475 5478 5480 5480 5480 5480 5480 5478 5476 5474 5474 5472 5468 5463 5458 5454 5451 5448 5442 5437 5435 5431 5427 5420 5414 5409 5404 5399 5391 5384 5376 5369 5362 5356 5349 5342 5336 5329 5322 5316 5310 5304 5298
5456 5460 5463 5464 5464 5462 5461 5461 5461 5460 5459 5457 5455 5451 5446 5442 5438 5435 5431 5428 5423 5421 5416 5410 5405 5400 5396 5392 5384 5377 5369 5362 5356 5349 5342 5336 5329 5323 5317 5311 5304 5299 5292 5286
5440 5443 5445 5447 5447 5444 5442 5442 5443 5443 5442 5440 5438 5435 5432 5428 5425 5422 5416 5411 5408 5406 5401 5395 5391 5388 5383 5376 5369 5362 5355 5348 5342 5336 5329 5323 5317 5311 5305 5299 5293 5288 5282 5276
5424 5426 5427 5427 5428 5428 5425 5423 5423 5423 5422 5422 5420 5418 5416 5412 5407 5404 5401 5398 5394 5390 5385 5381 5378 5374 5368 5360 5353 5347 5341 5335 5329 5323 5317 5311 5305 5300 5294 5289 5283 5278 5273 5268
5406 5408 5409 5411 5411 5409 5407 5406 5405 5404 5404 5403 5401 5399 5397 5395 5392 5388 5384 5381 5379 5375 5370 5366 5362 5357 5350 5344 5338 5333 5327 5322 5316 5311 5306 5300 5294 5289 5284 5279 5274 5269 5265 5261
5389 5391 5393 5393 5393 5392 5391 5391 5391 5390 5389 5387 5384 5381 5379 5377 5374 5371 5368 5365 5362 5358 5353 5348 5344 5340 5334 5329 5324 5319 5314 5309 5304 5298 5293 5288 5284 5279 5275 5270 5266 5261 5258 5254
5372 5374 5375 5376 5375 5376 5376 5376 5375 5374 5372 5371 5368 5364 5362 5360 5357 5354 5351 5347 5343 5340 5336 5332 5328 5324 5319 5315 5310 5306 5301 5296 5292 5287 5283 5278 5274 5270 5266 5262 5258 5254 5251 5247